This demonstration page uses our WeatherBlox Daily Observations layout. Learn more.

Left ArrowRight Arrow

39.92423, -83.80882

Hourly Observations for September 28, 2015

Temp ( °F °C ) Dew Point ( °F °C ) Humidity (%) Winds ( mph kmh ) Pressure ( in mb ) Visibility ( mi km ) Precip ( " mm )
12:56 am 00:56 Clear 64 17.7 63 17.2 97 97 SE 6 9 30.12 1020 10 16.0934 0 0
1:56 am 01:56 Clear 63 17.2 63 17.2 100 100 ESE 6 9 30.11 1020 10 16.0934 0 0
2:56 am 02:56 Clear 62 16.6 62 16.6 100 100 ESE 6 9 30.1 1019 10 16.0934 0 0
3:56 am 03:56 Clear 60 15.5 60 15.5 100 100 E 6 9 30.08 1019 8 12.87472 0 0
4:29 am 04:29 Clear with Mist and Fog 57 14 57 14 100 100 E 6 9 30.09 1019 2.5 4.02335 0 0
4:56 am 04:56 Clear with Mist and Fog 58 14.4 58 14.4 100 100 E 6 9 30.07 1018 2 3.21868 0 0
5:22 am 05:22 Mostly Cloudy with Mist and Fog 59 15 59 15 100 100 E 5 7 30.09 1019 1.5 2.41401 0 0
5:33 am 05:33 Mostly Cloudy with Mist and Fog 59 15 59 15 100 100 ESE 6 9 30.09 1019 3 4.82802 0 0
5:56 am 05:56 Partly Cloudy with Mist and Fog 59 15 59 15 100 100 E 5 7 30.08 1019 3 4.82802 0 0
5:59 am 05:59 Mostly Cloudy with Mist and Fog 59 15 59 15 100 100 E 5 7 30.09 1019 1.5 2.41401 0 0
6:18 am 06:18 Clear with Mist and Fog 59 15 59 15 100 100 E 3 6 30.09 1019 1 1.60934 0 0
6:22 am 06:22 Clear with Fog 59 15 59 15 100 100 E 3 6 30.09 1019 0.5 0.80467 0 0
6:33 am 06:33 Mostly Cloudy with Mist and Fog 57 14 57 14 100 100 ESE 5 7 30.09 1019 0.75 1.207005 0 0
6:47 am 06:47 Mostly Cloudy with Mist and Fog 57 14 57 14 100 100 ESE 7 11 30.09 1019 1.25 2.011675 0 0
6:49 am 06:49 Mostly Cloudy with Mist and Fog 57 14 57 14 100 100 ESE 6 9 30.12 1020 2.5 4.02335 0 0
6:56 am 06:56 Mostly Cloudy with Mist and Fog 59 15 59 15 100 100 E 5 7 30.09 1019 3 4.82802 0 0
7:10 am 07:10 Cloudy with Mist and Fog 61 16 61 16 100 100 ESE 5 7 30.12 1020 2 3.21868 0 0
7:13 am 07:13 Cloudy with Mist and Fog 61 16 61 16 100 100 ESE 5 7 30.12 1020 1.25 2.011675 0 0
7:17 am 07:17 Cloudy with Mist and Fog 61 16 61 16 100 100 ESE 5 7 30.12 1020 0.75 1.207005 0 0
7:26 am 07:26 Cloudy with Fog 63 17 63 17 100 100 ESE 5 7 30.12 1020 0.5 0.80467 0 0
7:48 am 07:48 Cloudy with Fog 63 17 63 17 100 100 ESE 6 9 30.12 1020 0.25 0.402335 0 0
7:56 am 07:56 Cloudy with Fog 62 16.6 62 16.6 100 100 ESE 6 9 30.1 1019 0.25 0.402335 0 0
8:34 am 08:34 Cloudy with Fog 63 17 63 17 100 100 ESE 7 11 30.12 1020 0.5 0.80467 0 0
8:56 am 08:56 Cloudy with Mist and Fog 64 17.7 64 17.7 100 100 SE 6 9 30.11 1020 1.25 2.011675 0 0
9:01 am 09:01 Cloudy with Mist and Fog 64 18 64 18 100 100 SE 7 11 30.12 1020 2 3.21868 0 0
9:10 am 09:10 Cloudy with Mist and Fog 64 18 64 18 100 100 ESE 7 11 30.12 1020 6 9.65604 0 0
9:36 am 09:36 Cloudy 64 18 64 18 100 100 SE 8 13 30.12 1020 10 16.0934 0 0
9:56 am 09:56 Cloudy 66 18.8 66 18.8 100 100 ESE 7 11 30.1 1019 10 16.0934 0 0
10:20 am 10:20 Mostly Cloudy 70 21 66 19 88 88 SE 5 7 30.09 1019 10 16.0934 0 0
10:40 am 10:40 Partly Cloudy 72 22 66 19 83 83 E 5 7 30.09 1019 10 16.0934 0 0
10:56 am 10:56 Sunny 73 22.7 66 18.8 79 79 Calm 30.1 1019 10 16.0934 0 0
11:56 am 11:56 Mostly Sunny 78 25.5 66 18.8 67 67 E 3 6 30.08 1019 10 16.0934 0 0
12:34 pm 12:34 Mostly Cloudy 81 27 66 19 62 62 VRB 5 7 30.03 1017 10 16.0934 0 0
12:56 pm 12:56 Mostly Cloudy 80 26.6 65 18.3 60 60 VRB 5 7 30.06 1018 10 16.0934 0 0
1:03 pm 13:03 Mostly Cloudy 81 27 64 18 58 58 SW 6 9 30.03 1017 10 16.0934 0 0
1:56 pm 13:56 Mostly Sunny 81 27.2 65 18.3 58 58 VRB 3 6 30.04 1017 10 16.0934 0 0
2:56 pm 14:56 Mostly Cloudy 84 28.8 64 17.7 51 51 VRB 6 9 30.01 1016 10 16.0934 0 0
3:56 pm 15:56 Mostly Sunny 84 28.8 64 17.7 51 51 SW 7 11 29.99 1016 10 16.0934 0 0
4:56 pm 16:56 Sunny 84 28.8 63 17.2 50 50 VRB 6 9 29.98 1015 10 16.0934 0 0
5:56 pm 17:56 Sunny 83 28.3 64 17.7 53 53 VRB 5 7 29.98 1015 10 16.0934 0 0
6:56 pm 18:56 Sunny 79 26.1 65 18.3 62 62 Calm 29.98 1015 10 16.0934 0 0
7:56 pm 19:56 Clear 74 23.3 65 18.3 74 74 Calm 29.99 1016 10 16.0934 0 0
8:56 pm 20:56 Clear 73 22.7 64 17.7 73 73 S 3 6 29.99 1016 10 16.0934 0 0
9:56 pm 21:56 Mostly Clear 74 23.3 65 18.3 74 74 S 6 9 30.01 1016 10 16.0934 0 0
10:56 pm 22:56 Mostly Cloudy 73 22.7 66 18.8 79 79 SE 3 6 30 1016 10 16.0934 0 0
11:56 pm 23:56 Mostly Clear 69 20.5 65 18.3 87 87 SE 3 6 30 1016 10 16.0934 0 0

Powered by AerisWeather